LiveATC.Net - Listen to live air traffic control over the Internet!


ICAO: CYKF  IATA: YKF   Airport: Waterloo Airport
City: Waterloo   State/Province: Ontario
Country: Canada   Continent: North America
CYKF METAR Weather: CYKF 181400Z AUTO 32010G16KT 9SM CLR 08/04 A3002 RMK SLP172
CYKF Flight Activity (FlightAware)
CYKF Webcam:  (Airport Webcams) 

CYKF Gnd/Twr
Feed Status: UP   Listeners: 6
Listen in your browser - HTML5 player (in browser, HTML5)
Click here to listen with your own player (launches your MP3 player)
Archive Access: CYKF Gnd/Twr
FacilityFrequency
FBO123.500
Waterloo Ground121.800
Waterloo Tower126.000

NOTICE

Unauthorized use prohibited. See LiveATC.net Terms of Service


Airport/ARTCC Code
Frequency Search
(e.g., 124.400, 128.75)
Site-wide search
 


Browse Feeds
Top 50 Feeds
HF Oceanic Feeds
Coverage Map
Bad Weather Areas

LiveATC FAQ
Offer LiveATC feed
Contact LiveATC.net
Press Inquiries

LiveATC on iPhone
LiveATC on Android

Windows Phone
Windows 8/10

LiveATC Mobile
(Mobile browser)

ATC Audio Archives
Interesting Recordings

LiveATC Forums


Home Page
About LiveATC.net
Make a Donation
Terms of Use
Privacy Policy

Canadian Air Freqs

AIRMETs/SIGMETs

FAA Airport Status
NAS Status
Arrival Demand


Server Software By:
Icecast.org
Liquidsoap